Location: ???????
(55.5931°N, 39.3286°E)
Time: 05:07:36
(UTC+00:00)

Daily predictions for brighter satellites

Satellite Brightness Start Highest point End
(mag) Time Altitude Azimuth Time Altitude Azimuth Time Altitude Azimuth
Cosmos 2221 3.1 00:03:42 31° WSW 00:05:03 40° WNW 00:09:06 10° N
COSMOS 2441 4.3 00:00:54 10° NNE 00:05:51 87° WNW 00:08:43 25° SSW
Cosmos 2333 Rocket 2.5 00:04:54 25° WSW 00:08:05 58° NW 00:13:41 10° NNE
Lacrosse 5 1.9 00:05:37 29° SW 00:08:11 68° SSE 00:13:17 10° ENE
ALOS 2.8 00:04:00 10° NNE 00:08:34 54° E 00:12:16 15° S
NOSS 3-1 (C) 4.2 00:02:08 10° NW 00:08:44 70° NNE 00:17:00 10° ESE
Cosmos 972 Rocket 4.0 00:07:57 27° SW 00:11:00 74° WNW 00:16:05 10° NNE
Cosmos 44 Rocket 3.4 00:10:18 27° SW 00:13:10 78° SE 00:18:20 10° NE
Cosmos 2360 Rocket 2.7 00:09:55 22° WSW 00:13:17 49° NW 00:18:47 10° NNE
Lacrosse 4 Rocket 3.3 00:15:03 11° WNW 00:18:02 22° NNW 00:21:12 10° NNE
Cosmos 2278 Rocket 2.2 00:13:14 10° NW 00:18:51 63° WSW 00:24:26 10° SSE
Cosmos 1743 4.1 00:16:46 10° NW 00:19:36 21° W 00:19:41 21° W
NOSS 3-4 (A) 3.3 00:16:26 24° SW 00:20:03 86° NW 00:26:27 10° NE
NOSS 3-4 (C) 3.3 00:16:29 24° SW 00:20:06 87° NW 00:26:30 10° NE
Sich 1 2.9 00:16:25 10° NNW 00:20:39 77° W 00:24:33 12° S
Cosmos 1733 3.1 00:18:15 10° N 00:21:54 81° E 00:25:30 10° SSE
IDEFIX/ARIANE 42P 3.1 00:17:47 10° N 00:22:44 46° WNW 00:25:43 22° SW
Cosmos 2322 Rocket 3.1 00:19:32 17° W 00:23:21 38° NW 00:28:36 10° NNE
NOSS 2-3 (C) 4.5 00:19:05 10° NW 00:24:22 58° SW 00:31:33 10° SSE
EO 1 Delta rocket 4.4 00:19:54 10° NNE 00:24:40 56° E 00:29:12 10° S
BlueWalker 3 2.5 00:23:38 28° WSW 00:24:50 35° SSW 00:28:21 10° SE
SAR-Lupe-1 4.0 00:21:20 10° NNE 00:24:58 83° WNW 00:26:59 25° SSW
MSX 4.2 00:21:37 10° N 00:27:15 53° WNW 00:31:06 20° SW
Cosmos 1743 Rocket 3.4 00:23:56 10° NNW 00:28:16 69° W 00:32:27 11° S
NOSS 2-3 (D) 4.5 00:24:16 10° NW 00:29:30 56° SW 00:36:37 10° SSE
Cosmos 1538 Rocket 4.1 00:26:59 18° SSW 00:31:02 78° ESE 00:36:24 10° NNE
Cosmos 2219 Rocket 2.4 00:27:21 21° SW 00:31:03 61° NW 00:36:36 10° NNE
ATLAS 3B R/B 3.6 00:23:45 10° NW 00:31:23 62° NNE 00:39:08 10° ESE
Cosmos 192 4.4 00:27:37 10° NW 00:32:23 52° WSW 00:37:08 10° S
Gbstr 26 Del rocket 3.8 00:31:34 21° SSW 00:33:25 31° SSE 00:36:50 10° E
Cosmos 1536 3.3 00:30:13 10° NNW 00:33:51 38° W 00:35:46 23° SSW
Meteor 2-10 4.2 00:28:34 10° NNW 00:34:08 72° W 00:39:47 10° S
Cosmos 1420 Rocket 4.0 00:30:00 10° NNW 00:35:16 86° ENE 00:40:33 10° SSE
Cosmos 1633 Rocket 3.9 00:31:15 10° N 00:35:31 51° ENE 00:39:46 10° SSE
SAR-Lupe-4 3.6 00:32:34 10° N 00:36:06 60° WNW 00:38:09 23° SW
SWAS 4.3 00:32:18 10° NW 00:36:32 80° SW 00:40:44 10° SSE
COBE Rocket 4.4 00:32:24 10° N 00:36:50 42° WNW 00:39:40 20° SW
NOSS 7 (E) 4.5 00:34:17 10° WNW 00:37:14 44° SW 00:40:30 10° SSE
NOSS 2-2 (E) 4.3 00:33:18 10° WNW 00:37:19 37° SW 00:42:42 10° SSE
USA 290 4.3 00:34:47 10° NNW 00:37:35 30° NE 00:40:21 10° ESE
Cosmos 1340 Rocket 4.4 00:34:11 10° SSE 00:37:38 33° E 00:41:09 10° NNE
Cosmos 2056 Rocket 3.7 00:33:21 10° NNW 00:38:45 81° ENE 00:44:10 10° SSE
Cosmos 1805 3.3 00:35:58 10° N 00:39:41 73° ENE 00:43:23 10° SSE
GP-B 3.2 00:35:27 10° N 00:39:48 58° W 00:43:17 15° SSW
SL-16 R/B 3.7 00:35:22 10° W 00:40:10 27° NNW 00:45:00 10° NNE
Meteor 1-28 Rocket 4.4 00:45:43 20° WSW 00:46:37 22° W 00:49:32 10° NW
Cosmos 1092 Rocket 4.0 00:42:33 10° S 00:48:42 85° E 00:54:54 10° NNE
ADEOS II 2.4 00:44:03 10° N 00:49:08 51° WNW 00:53:12 16° SW
CZ-2C R/B 3.4 00:45:18 10° NNE 00:50:21 51° E 00:55:22 10° S
FENGYUN 3A 3.9 00:45:48 10° N 00:51:07 56° WNW 00:55:38 14° SW
Cosmos 1624 Rocket 4.0 00:46:00 10° NNW 00:51:17 87° WSW 00:56:30 10° SSE
NOSS 2-2 (D) 4.3 00:47:42 10° WNW 00:51:38 38° SW 00:56:55 10° SSE
Cosmos 1726 3.2 00:51:39 10° NW 00:54:03 19° W 00:54:44 18° WSW
Meteor 1-19 Rocket 4.4 00:48:27 10° SSW 00:54:23 86° WNW 01:00:28 10° NNE
Cosmos 2026 Rocket 4.1 00:50:24 10° S 00:56:43 86° W 01:03:09 10° N
SL-16 R/B 3.2 00:51:35 11° SSW 00:56:55 33° W 01:02:30 10° NNW
Okean 1 3.4 00:54:37 16° SSW 00:57:32 53° WNW 01:01:18 10° N
CZ-2D R/B 3.1 00:55:31 10° N 01:00:15 33° WNW 01:04:21 13° WSW
ATLAS 5 CENTAUR R/B 1.9 00:56:49 10° NW 01:01:23 89° SW 01:07:05 10° SE
Cosmos 1461 3.8 00:59:28 10° WNW 01:02:30 22° WSW 01:05:30 10° S
Envisat 3.1 01:02:05 10° NNE 01:07:12 81° ESE 01:12:17 10° SSW
Cosmos 923 Rocket 4.2 01:02:20 10° SSW 01:07:33 73° ESE 01:12:50 10° NNE
Cosmos 1151 Rocket 3.0 01:04:24 10° SSW 01:08:41 72° WNW 01:13:03 10° N
RESURS DK-1 2.3 01:06:15 13° SW 01:09:50 83° NW 01:13:57 10° NE
Intercosmos 25 Rocket 3.2 01:15:21 10° NNW 01:18:31 53° W 01:22:28 10° S
Cosmos 1766 3.5 01:15:31 10° N 01:19:13 68° ENE 01:22:54 10° SSE
Cosmos 1943 Rocket 2.6 01:14:14 10° NW 01:19:31 41° WSW 01:24:46 10° S
Cosmos 921 Rocket 4.1 01:15:39 10° S 01:19:42 45° ESE 01:23:53 10° NNE
Cosmos 1371 Rocket 4.1 01:14:54 10° NW 01:19:59 55° WSW 01:25:07 10° S
ATLAS 2AS CENTAUR R/B 4.0 01:13:22 10° S 01:20:03 38° ESE 01:26:31 10° NE
Meteor 1-27 Rocket 4.0 01:15:04 10° SSW 01:20:44 56° WNW 01:26:21 10° N
Cosmos 1470 Rocket 3.6 01:16:57 10° NNW 01:21:21 87° ENE 01:25:46 10° SSE
Cosmos 1975 2.9 01:19:00 10° NNW 01:22:44 49° W 01:26:28 10° S
Thor Agena Rocket 3.6 01:18:03 10° NNE 01:23:08 80° ESE 01:28:11 10° SSW
NOAA 11 4.2 01:19:32 10° NNE 01:25:01 89° WNW 01:30:30 10° SSW
Meteor 2-4 Rocket 3.8 01:21:12 10° S 01:26:37 85° ESE 01:32:14 10° NNE
H-2A R/B 3.6 01:22:03 10° NNE 01:26:38 36° E 01:31:17 10° SSE
Cosmos 1340 2.7 01:24:55 10° NNW 01:28:14 44° W 01:31:30 10° S
COSMOS 2428 3.2 01:22:41 10° WSW 01:28:14 50° NW 01:33:47 10° NNE
Cosmos 2297 3.8 01:22:38 10° NW 01:28:26 90° WSW 01:34:12 10° SSE
CZ-4 R/B 4.0 01:23:41 10° NNE 01:28:26 61° WNW 01:33:05 10° SSW
CZ-2C R/B 4.2 01:30:17 10° N 01:34:26 27° WNW 01:38:44 10° WSW
Cosmos 1484 Rocket 4.2 01:31:04 10° NNE 01:34:28 36° E 01:37:48 10° SSE
Cosmos 1666 Rocket 4.0 01:30:35 10° NNW 01:34:49 42° W 01:39:01 10° SSW
S3M 4.1 01:29:23 10° NNW 01:35:34 90° E 01:41:47 10° S
Cosmos 2237 Rocket 2.3 01:30:19 10° SW 01:36:00 82° NW 01:41:45 10° NNE
NOSS 3-1 (A) 4.0 01:29:11 10° NW 01:36:02 88° SW 01:44:31 10° SE
Cosmos 1980 3.8 01:31:34 10° SW 01:37:14 77° NW 01:42:56 10° NNE
Cosmos 2369 Rocket 2.3 01:32:04 10° NNW 01:37:44 83° ENE 01:43:20 10° SE
Cosmos 1626 2.0 01:36:19 10° S 01:39:37 76° E 01:42:56 10° NNE
BREEZE-M DEB (TANK) 2.1 01:38:15 10° WSW 01:40:23 33° SSE 01:42:19 10° E
Resurs 1-4 Rocket 3.8 01:37:18 10° N 01:40:56 19° NW 01:44:34 10° W
USA 215 3.4 01:37:21 10° E 01:43:56 81° N 01:50:29 10° W
USA 229 DEB 4.4 01:36:59 10° NW 01:44:02 66° NNE 01:51:49 10° ESE
USA 229 4.4 01:37:07 10° NW 01:44:10 65° NNE 01:51:57 10° ESE
ALOS 3.4 01:41:37 10° N 01:45:34 28° WNW 01:49:31 10° WSW
Cosmos 2263 4.5 01:40:53 10° NNW 01:46:32 76° NE 01:52:10 10° SE
Cosmos 2112 Rocket 4.1 01:41:45 10° SSW 01:47:07 89° WNW 01:52:31 10° NNE
